Time,TemperatureF,DewpointF,PressureIn,WindDirection,WindDirectionDegrees,WindSpeedMPH,WindSpeedGustMPH,Humidity,HourlyPrecipIn,Conditions,Clouds,dailyrainin,SoftwareType,DateUTC
2013-09-11 00:14:00,81.0,72.0,-100.00,SSW,201,7.0,-999.0,72,-99.99,,,-99.99,,2013-09-11 04:14:00,
2013-09-11 00:24:00,81.0,72.0,-100.00,SSW,204,7.0,-999.0,73,-99.99,,,-99.99,,2013-09-11 04:24:00,
2013-09-11 00:44:00,81.0,72.0,-100.00,SSW,204,6.0,-999.0,74,-99.99,,,-99.99,,2013-09-11 04:44:00,
2013-09-11 00:54:00,80.0,72.0,-100.00,SSW,201,7.0,-999.0,75,-99.99,,,-99.99,,2013-09-11 04:54:00,
2013-09-11 01:13:00,80.0,72.0,-100.00,SSW,201,7.0,-999.0,75,-99.99,,,-99.99,,2013-09-11 05:13:00,
2013-09-11 01:23:00,80.0,72.0,-100.00,SSW,204,5.0,-999.0,76,-99.99,,,-99.99,,2013-09-11 05:23:00,
2013-09-11 01:43:00,80.0,72.0,-100.00,SSW,204,5.0,-999.0,76,-99.99,,,-99.99,,2013-09-11 05:43:00,
2013-09-11 01:53:00,79.0,72.0,-100.00,SSW,208,5.0,-999.0,78,-99.99,,,-99.99,,2013-09-11 05:53:00,
2013-09-11 02:02:00,79.0,72.0,-100.00,SSW,208,5.0,-999.0,78,-99.99,,,-99.99,,2013-09-11 06:02:00,
2013-09-11 02:12:00,79.0,72.0,-100.00,SSW,208,5.0,-999.0,78,-99.99,,,-99.99,,2013-09-11 06:12:00,
2013-09-11 02:22:00,78.0,72.0,-100.00,SSW,199,7.0,-999.0,80,-99.99,,,-99.99,,2013-09-11 06:22:00,
2013-09-11 02:33:00,78.0,72.0,-100.00,SSW,199,7.0,-999.0,80,-99.99,,,-99.99,,2013-09-11 06:33:00,
2013-09-11 02:42:00,78.0,72.0,-100.00,SSW,199,7.0,-999.0,80,-99.99,,,-99.99,,2013-09-11 06:42:00,
2013-09-11 02:52:00,78.0,72.0,-100.00,SSW,199,8.0,-999.0,81,-99.99,,,-99.99,,2013-09-11 06:52:00,
2013-09-11 03:02:00,78.0,72.0,-100.00,SSW,199,8.0,-999.0,81,-99.99,,,-99.99,,2013-09-11 07:02:00,
2013-09-11 03:12:00,78.0,72.0,-100.00,SSW,199,8.0,-999.0,81,-99.99,,,-99.99,,2013-09-11 07:12:00,
2013-09-11 03:24:00,78.0,72.0,-100.00,SSW,202,6.0,-999.0,82,-99.99,,,-99.99,,2013-09-11 07:24:00,
2013-09-11 03:32:00,78.0,72.0,-100.00,SSW,202,6.0,-999.0,82,-99.99,,,-99.99,,2013-09-11 07:32:00,
2013-09-11 03:42:00,78.0,72.0,-100.00,SSW,202,6.0,-999.0,82,-99.99,,,-99.99,,2013-09-11 07:42:00,
2013-09-11 03:53:00,78.0,72.0,-100.00,SW,223,4.0,-999.0,81,-99.99,,,-99.99,,2013-09-11 07:53:00,
2013-09-11 04:02:00,78.0,72.0,-100.00,SW,223,4.0,-999.0,81,-99.99,,,-99.99,,2013-09-11 08:02:00,
2013-09-11 04:12:00,78.0,72.0,-100.00,SW,223,4.0,-999.0,81,-99.99,,,-99.99,,2013-09-11 08:12:00,
2013-09-11 04:22:00,78.0,71.0,-100.00,WSW,242,4.0,-999.0,79,-99.99,,,-99.99,,2013-09-11 08:22:00,
2013-09-11 04:32:00,78.0,71.0,-100.00,WSW,242,4.0,-999.0,79,-99.99,,,-99.99,,2013-09-11 08:32:00,
2013-09-11 04:42:00,78.0,71.0,-100.00,WSW,242,4.0,-999.0,79,-99.99,,,-99.99,,2013-09-11 08:42:00,
2013-09-11 04:52:00,78.0,72.0,-100.00,SSW,213,4.0,-999.0,81,-99.99,,,-99.99,,2013-09-11 08:52:00,
2013-09-11 05:02:00,78.0,72.0,-100.00,SSW,213,4.0,-999.0,81,-99.99,,,-99.99,,2013-09-11 09:02:00,
2013-09-11 05:12:00,78.0,72.0,-100.00,SSW,213,4.0,-999.0,81,-99.99,,,-99.99,,2013-09-11 09:12:00,
2013-09-11 05:22:00,77.0,72.0,-100.00,SSW,192,6.0,-999.0,84,-99.99,,,-99.99,,2013-09-11 09:22:00,
2013-09-11 05:33:00,77.0,72.0,-100.00,SSW,192,6.0,-999.0,84,-99.99,,,-99.99,,2013-09-11 09:33:00,
2013-09-11 05:43:00,77.0,72.0,-100.00,SSW,192,6.0,-999.0,84,-99.99,,,-99.99,,2013-09-11 09:43:00,
2013-09-11 05:53:00,76.0,72.0,-100.00,SSW,210,6.0,-999.0,85,-99.99,,,-99.99,,2013-09-11 09:53:00,
2013-09-11 06:03:00,76.0,72.0,-100.00,SSW,210,6.0,-999.0,85,-99.99,,,-99.99,,2013-09-11 10:03:00,
2013-09-11 06:13:00,76.0,72.0,-100.00,SSW,210,6.0,-999.0,85,-99.99,,,-99.99,,2013-09-11 10:13:00,
2013-09-11 06:23:00,76.0,71.0,-100.00,SSW,206,5.0,-999.0,85,-99.99,,,-99.99,,2013-09-11 10:23:00,
2013-09-11 06:33:00,76.0,71.0,-100.00,SSW,206,5.0,-999.0,85,-99.99,,,-99.99,,2013-09-11 10:33:00,
2013-09-11 06:43:00,76.0,71.0,-100.00,SSW,206,5.0,-999.0,85,-99.99,,,-99.99,,2013-09-11 10:43:00,
2013-09-11 06:53:00,76.0,71.0,-100.00,SW,214,5.0,-999.0,85,-99.99,,,-99.99,,2013-09-11 10:53:00,
2013-09-11 07:03:00,76.0,71.0,-100.00,SW,214,5.0,-999.0,85,-99.99,,,-99.99,,2013-09-11 11:03:00,
2013-09-11 07:12:00,76.0,71.0,-100.00,SW,214,5.0,-999.0,85,-99.99,,,-99.99,,2013-09-11 11:12:00,
2013-09-11 07:22:00,76.0,71.0,-100.00,South,189,5.0,-999.0,86,-99.99,,,-99.99,,2013-09-11 11:22:00,
2013-09-11 07:42:00,76.0,71.0,-100.00,SSW,196,4.0,-999.0,86,-99.99,,,-99.99,,2013-09-11 11:42:00,
2013-09-11 07:52:00,76.0,71.0,-100.00,SSW,206,5.0,-999.0,85,-99.99,,,-99.99,,2013-09-11 11:52:00,
2013-09-11 08:11:00,76.0,71.0,-100.00,SW,223,4.0,-999.0,84,-99.99,,,-99.99,,2013-09-11 12:11:00,
2013-09-11 08:22:00,76.0,71.0,-100.00,WSW,246,5.0,-999.0,83,-99.99,,,-99.99,,2013-09-11 12:22:00,
2013-09-11 08:42:00,77.0,71.0,-100.00,SW,230,5.0,-999.0,82,-99.99,,,-99.99,,2013-09-11 12:42:00,
2013-09-11 08:52:00,77.0,71.0,-100.00,SW,219,5.0,-999.0,82,-99.99,,,-99.99,,2013-09-11 12:52:00,
2013-09-11 09:12:00,77.0,71.0,-100.00,SW,217,4.0,-999.0,80,-99.99,,,-99.99,,2013-09-11 13:12:00,
2013-09-11 09:22:00,78.0,71.0,-100.00,WSW,237,3.0,-999.0,77,-99.99,,,-99.99,,2013-09-11 13:22:00,
2013-09-11 09:42:00,79.0,71.0,-100.00,WSW,248,3.0,-999.0,76,-99.99,,,-99.99,,2013-09-11 13:42:00,
2013-09-11 09:52:00,80.0,71.0,-100.00,West,264,2.0,-999.0,72,-99.99,,,-99.99,,2013-09-11 13:52:00,
2013-09-11 10:11:00,82.0,71.0,-100.00,SW,227,2.0,-999.0,69,-99.99,,,-99.99,,2013-09-11 14:11:00,
2013-09-11 10:22:00,82.0,71.0,-100.00,SW,215,3.0,-999.0,68,-99.99,,,-99.99,,2013-09-11 14:22:00,
2013-09-11 10:42:00,84.0,71.0,-100.00,SSE,167,3.0,-999.0,65,-99.99,,,-99.99,,2013-09-11 14:42:00,
2013-09-11 10:52:00,84.0,72.0,-100.00,SSW,206,3.0,-999.0,65,-99.99,,,-99.99,,2013-09-11 14:52:00,
2013-09-11 11:11:00,84.0,72.0,-100.00,South,173,4.0,-999.0,65,-99.99,,,-99.99,,2013-09-11 15:11:00,
2013-09-11 11:22:00,85.0,71.0,-100.00,SW,219,3.0,-999.0,62,-99.99,,,-99.99,,2013-09-11 15:22:00,
2013-09-11 11:43:00,86.0,71.0,-100.00,SSE,167,5.0,-999.0,61,-99.99,,,-99.99,,2013-09-11 15:43:00,
2013-09-11 11:54:00,86.0,71.0,-100.00,SSW,199,5.0,-999.0,61,-99.99,,,-99.99,,2013-09-11 15:54:00,
2013-09-11 12:13:00,87.0,71.0,-100.00,South,190,4.0,-999.0,59,-99.99,,,-99.99,,2013-09-11 16:13:00,
2013-09-11 12:23:00,87.0,70.0,-100.00,South,184,5.0,-999.0,57,-99.99,,,-99.99,,2013-09-11 16:23:00,
2013-09-11 12:43:00,88.0,70.0,-100.00,South,178,5.0,-999.0,55,-99.99,,,-99.99,,2013-09-11 16:43:00,
2013-09-11 12:53:00,88.0,69.0,-100.00,South,187,7.0,-999.0,53,-99.99,,,-99.99,,2013-09-11 16:53:00,
2013-09-11 13:12:00,88.0,69.0,-100.00,SSW,199,9.0,-999.0,53,-99.99,,,-99.99,,2013-09-11 17:12:00,
2013-09-11 13:23:00,88.0,69.0,-100.00,SSW,205,9.0,-999.0,52,-99.99,,,-99.99,,2013-09-11 17:23:00,
2013-09-11 13:43:00,89.0,69.0,-100.00,South,183,8.0,-999.0,51,-99.99,,,-99.99,,2013-09-11 17:43:00,
2013-09-11 13:52:00,89.0,69.0,-100.00,SSW,192,10.0,-999.0,51,-99.99,,,-99.99,,2013-09-11 17:52:00,
2013-09-11 14:12:00,89.0,68.0,-100.00,SSW,200,11.0,-999.0,50,-99.99,,,-99.99,,2013-09-11 18:12:00,
2013-09-11 14:22:00,89.0,68.0,-100.00,South,171,11.0,-999.0,49,-99.99,,,-99.99,,2013-09-11 18:22:00,
2013-09-11 14:42:00,89.0,69.0,-100.00,South,181,9.0,-999.0,51,-99.99,,,-99.99,,2013-09-11 18:42:00,
2013-09-11 14:52:00,90.0,69.0,-100.00,South,181,10.0,-999.0,51,-99.99,,,-99.99,,2013-09-11 18:52:00,
2013-09-11 15:12:00,90.0,68.0,-100.00,South,177,10.0,-999.0,49,-99.99,,,-99.99,,2013-09-11 19:12:00,
2013-09-11 15:22:00,90.0,67.0,-100.00,South,190,11.0,-999.0,46,-99.99,,,-99.99,,2013-09-11 19:22:00,
2013-09-11 15:42:00,91.0,66.0,-100.00,South,183,9.0,-999.0,43,-99.99,,,-99.99,,2013-09-11 19:42:00,
2013-09-11 15:53:00,91.0,65.0,-100.00,South,181,11.0,-999.0,43,-99.99,,,-99.99,,2013-09-11 19:53:00,
2013-09-11 16:12:00,90.0,66.0,-100.00,South,177,11.0,-999.0,44,-99.99,,,-99.99,,2013-09-11 20:12:00,
2013-09-11 16:22:00,90.0,65.0,-100.00,South,190,11.0,-999.0,44,-99.99,,,-99.99,,2013-09-11 20:22:00,
2013-09-11 16:42:00,91.0,66.0,-100.00,SSW,201,10.0,-999.0,43,-99.99,,,-99.99,,2013-09-11 20:42:00,
2013-09-11 16:52:00,90.0,67.0,-100.00,South,191,10.0,-999.0,45,-99.99,,,-99.99,,2013-09-11 20:52:00,
2013-09-11 17:12:00,90.0,66.0,-100.00,SW,219,12.0,-999.0,44,-99.99,,,-99.99,,2013-09-11 21:12:00,
2013-09-11 17:22:00,90.0,66.0,-100.00,SW,219,12.0,-999.0,44,-99.99,,,-99.99,,2013-09-11 21:22:00,
2013-09-11 17:34:00,90.0,66.0,-100.00,SW,219,12.0,-999.0,44,-99.99,,,-99.99,,2013-09-11 21:34:00,
2013-09-11 17:44:00,90.0,66.0,-100.00,SW,219,12.0,-999.0,44,-99.99,,,-99.99,,2013-09-11 21:44:00,
2013-09-11 18:24:00,89.0,67.0,-100.00,SSW,195,13.0,-999.0,47,-99.99,,,-99.99,,2013-09-11 22:24:00,
2013-09-11 18:43:00,89.0,67.0,-100.00,SSW,213,13.0,-999.0,48,-99.99,,,-99.99,,2013-09-11 22:43:00,
2013-09-11 18:54:00,89.0,68.0,-100.00,SSW,207,11.0,-999.0,49,-99.99,,,-99.99,,2013-09-11 22:54:00,
2013-09-11 19:12:00,89.0,68.0,-100.00,SSW,205,12.0,-999.0,49,-99.99,,,-99.99,,2013-09-11 23:12:00,
2013-09-11 19:22:00,88.0,67.0,-100.00,SSW,204,11.0,-999.0,49,-99.99,,,-99.99,,2013-09-11 23:22:00,
2013-09-11 19:42:00,88.0,68.0,-100.00,South,191,9.0,-999.0,52,-99.99,,,-99.99,,2013-09-11 23:42:00,
2013-09-11 19:53:00,87.0,69.0,-100.00,SSW,202,10.0,-999.0,54,-99.99,,,-99.99,,2013-09-11 23:53:00,
2013-09-11 20:12:00,87.0,68.0,-100.00,SSW,203,11.0,-999.0,53,-99.99,,,-99.99,,2013-09-12 00:12:00,
2013-09-11 20:22:00,86.0,68.0,-100.00,SSW,209,11.0,-999.0,55,-99.99,,,-99.99,,2013-09-12 00:22:00,
2013-09-11 20:42:00,86.0,69.0,-100.00,SSW,210,11.0,-999.0,56,-99.99,,,-99.99,,2013-09-12 00:42:00,
2013-09-11 20:52:00,85.0,69.0,-100.00,SSW,204,9.0,-999.0,57,-99.99,,,-99.99,,2013-09-12 00:52:00,
2013-09-11 21:11:00,85.0,69.0,-100.00,SSW,203,8.0,-999.0,58,-99.99,,,-99.99,,2013-09-12 01:11:00,
2013-09-11 21:22:00,85.0,69.0,-100.00,SSW,209,8.0,-999.0,59,-99.99,,,-99.99,,2013-09-12 01:22:00,
2013-09-11 21:42:00,84.0,69.0,-100.00,SSW,203,8.0,-999.0,60,-99.99,,,-99.99,,2013-09-12 01:42:00,
2013-09-11 21:52:00,84.0,70.0,-100.00,SSW,197,7.0,-999.0,61,-99.99,,,-99.99,,2013-09-12 01:52:00,
2013-09-11 22:12:00,84.0,70.0,-100.00,SSW,192,6.0,-999.0,61,-99.99,,,-99.99,,2013-09-12 02:12:00,
2013-09-11 22:22:00,83.0,70.0,-100.00,South,189,6.0,-999.0,64,-99.99,,,-99.99,,2013-09-12 02:22:00,
2013-09-11 23:11:00,83.0,70.0,-100.00,South,183,4.0,-999.0,65,-99.99,,,-99.99,,2013-09-12 03:11:00,
2013-09-11 23:22:00,82.0,70.0,-100.00,South,182,7.0,-999.0,66,-99.99,,,-99.99,,2013-09-12 03:22:00,
2013-09-11 23:45:00,81.0,70.0,-100.00,South,183,6.0,-999.0,67,-99.99,,,-99.99,,2013-09-12 03:45:00,
2013-09-11 23:55:00,81.0,70.0,-100.00,South,189,6.0,-999.0,67,-99.99,,,-99.99,,2013-09-12 03:55:00,